Regional Weather Roundup
Issued by NWS

Home | Current Version | Previous Version | Text Only | Print | Product List | Glossary Off
Versions: 1 2 3 4 5 6 7 8 9 10 11 12 13 14 15 16 17 18 19 20 21 22 23 24 25 26 27 28 29 30 31 32 33 34 35 36 37 38 39 40 41 42 43 44 45 46 47 48 49 50

000
ASUS43 KIND 250109
RWRIN

WEATHER ROUNDUP FOR INDIANA
NATIONAL WEATHER SERVICE INDIANAPOLIS IN
900 PM EDT TUE MAY 24 2016

NOTE: "FAIR" INDICATES FEW OR NO CLOUDS BELOW 12,000 FEET WITH NO
SIGNIFICANT WEATHER AND/OR OBSTRUCTIONS TO VISIBILITY.

* - STATION DOES NOT REPORT WEATHER SUCH AS PRECIPITATION OR FOG.

+ - STATION NOT QUALITY CONTROLLED BY THE NATIONAL WEATHER SERVICE.
    USE DATA WITH CAUTION...ESPECIALLY DEWPOINT AND RELATIVE
    HUMIDITY OBSERVATIONS.

INZ001>003-010>013-019-020-250200-
NORTHWEST INDIANA

CITY           SKY/WX    TMP DP  RH WIND       PRES   REMARKS
GARY /AIRPORT/ MOCLDY    84  59  42 SW6       29.95R
KNOX *+        CLEAR     79  32  18 S8        29.97S
LA PORTE +     CLEAR     82  47  29 S8        29.98R
MICHIGAN CITY+ CLEAR     77  46  33 S5        29.97R
MONTICELLO +   CLEAR     77  46  33 S5        30.00R
RENSSELAER +   CLOUDY    79  48  34 S9        29.99R
VALPARAISO     CLEAR     79  51  37 SW10      29.98R

$$

LMZ046-743>745-250200-
SOUTHERN LAKE MICHIGAN

STATION/POSITION TIME  TEMP    WIND        PRES    WAVE
                       AIR SEA DIR/SP/G            HT
                 (UTC) (F)     (DEG/KT/KT) (MB)    (FT)
BURNS HARBOR     0000   83     200/ 14/ 19 1014.2R
MICHIGAN CITY    0000   84     180/ 10/ 11   N/A
5NW MICH CITY    0100   69 59  210/  6/  8   N/A     1

$$

INZ004-005-014>016-021>024-250200-
NORTH CENTRAL INDIANA

CITY           SKY/WX    TMP DP  RH WIND       PRES   REMARKS
ELKHART        CLEAR     79  55  44 S5        29.99R
GOSHEN         CLEAR     76  46  34 S7        29.99S
LOGANSPORT +   CLEAR     75  48  38 SW8       30.01S
ROCHESTER +    CLEAR     79  46  31 S6        30.00S
SOUTH BEND     CLEAR     77  49  37 S8        29.98R
WARSAW +       CLEAR     77  50  38 CALM      30.00S

$$

INZ006>009-017-018-025>027-250200-
NORTHEAST INDIANA

CITY           SKY/WX    TMP DP  RH WIND       PRES   REMARKS
ANGOLA *+      CLEAR     70  55  60 S3        30.00F
AUBURN +       CLEAR     72  50  46 CALM      30.02S
FORT WAYNE     PTCLDY    73  47  39 S8        30.02S
HUNTINGTON +   CLEAR    N/A N/A N/A S3        30.02R

$$

INZ028-029-035-036-043>045-051>053-250200-
WEST CENTRAL INDIANA

CITY           SKY/WX    TMP DP  RH WIND       PRES   REMARKS
CRAWFORDSVL +  CLEAR     73  53  50 S7        30.03R
GREENCASTLE +  CLEAR     73  57  56 S6        30.04R
LAFAYETTE      CLEAR     77  52  41 S9        30.00R
TERRE HAUTE    CLEAR     75  56  51 S7        30.02S

$$

INZ030>032-037>040-046>048-054>057-064-065-250200-
CENTRAL INDIANA

CITY           SKY/WX    TMP DP  RH WIND       PRES   REMARKS
CP ATTERBURY + CLEAR     72  55  56 SW3       30.05S
COLUMBUS       PTCLDY    73  55  53 SW6       30.05R
FRANKFORT +      N/A     76  36  24 CALM      30.04S
GREENWOOD *+   PTCLDY    75  54  46 SW6       30.05R
INDIANAPOLIS   PTCLDY    73  55  53 S10       30.02S
-EAGLE CREEK   CLEAR     77  53  43 SW6       30.02S
KOKOMO *+      CLEAR     73  50  43 SW7       30.02R
MARION +       CLEAR     75  50  41 S8        30.03R
SHELBYVILLE    CLEAR     75  55  49 SW9       30.04R
ZIONSVILLE +   CLEAR     73  54  50 SW6       30.04S

$$

INZ033-034-041-042-049-050-058-059-250200-
EAST CENTRAL INDIANA

CITY           SKY/WX    TMP DP  RH WIND       PRES   REMARKS
MUNCIE         CLEAR     78  48  34 SW3       30.04S

$$

INZ060-061-067>069-081>083-085>088-250200-
SOUTHWEST INDIANA

CITY           SKY/WX    TMP DP  RH WIND       PRES   REMARKS
EVANSVILLE     CLOUDY    77  56  48 SE6       30.02F
HUNTINGBURG *+ CLOUDY    73  57  56 S3        30.04F
WASHINGTON +   CLOUDY    76  59  56 S6        30.03S

$$

INZ062-063-066-070>080-084-089>092-250200-
SOUTH CENTRAL AND SOUTHEAST INDIANA

CITY           SKY/WX    TMP DP  RH WIND       PRES   REMARKS
BEDFORD +      MOCLDY    75  64  69 CALM      30.04S
BLOOMINGTON    PTCLDY    73  56  54 SW3       30.05S
MADISON *+     CLEAR     72  55  56 CALM      30.08S
NORTH VERNON + CLEAR     72  61  68 CALM      30.06
SEYMOUR +      PTCLDY    73  59  60 S3        30.05R

$$





USA.gov is the U.S. government's official web portal to all federal, state and local government web resources and services.